Flag for U.S.A. Weather past 2 weeks in San Bernardino, California, U.S.A.

Now
72 °F

Partly sunny.


Feels Like: 76 °F
Forecast: 62 / 92 °F
Wind: 6 mph from North

Location: Riverside Municipal Airport

Current Time: May 30, 2015 at 10:31:19 AM

Latest Report: May 30, 2015 at 9:53 AM


Visibility: 5 mi

Pressure: 29.91 "Hg

Humidity: 61%

Dew point: 58 °F

Location of San BernardinoLocation

Historic Weather in San Bernardino — Graph

°F

San Bernardino temperature yesterday

Maximum temperature yesterday: 88 °F (at 2:53 PM)
Minimum temperature yesterday: 56 °F (at 5:00 AM)
Average temperature yesterday: 70 °F

Past Weeks' High & Low Weather Summary

 TemperatureHumidityPressure
High88 °F (May 29, 2:53 PM)97% (May 29, 5:00 AM)30.08 "Hg (May 29, 5:00 AM)
Low52 °F (May 16, 3:53 AM)27% (May 29, 4:53 PM)29.79 "Hg (May 15, 4:53 PM)
Average63 °F67%29.94 "Hg
* Reported May 15 8:53 AM — May 30 8:53 AM, San Bernardino, Weather by CustomWeather, © 2015

Note: Actual official high and low records may vary slightly from our data, if they occured in-between our weather recording intervals... More about our weather records

Advertising

San Bernardino weather history for previous 24 hours

 ConditionsComfort  
Time TempWeatherWind HumidityBarometerVisibility
8:53 AM
Sat, May 30
68 °FSunny.3 mph68%29.91 "Hg4 mi
7:53 AM63 °FSunny.No wind81%29.90 "Hg4 mi
6:53 AM60 °FFog.3 mph86%29.89 "Hg3 mi
5:53 AM60 °FFog.3 mph86%29.88 "Hg4 mi
4:53 AM60 °FFog.No wind86%29.87 "Hg6 mi
3:53 AM61 °FClear.No wind83%29.86 "Hg8 mi
2:53 AM61 °FClear.No wind83%29.87 "Hg7 mi
1:53 AM63 °FClear.3 mph81%29.87 "Hg8 mi
12:53 AM65 °FClear.No wind73%29.88 "Hg9 mi
11:53 PM
Fri, May 29
67 °FClear.No wind71%29.88 "Hg10 mi
10:53 PM67 °FClear.5 mph71%29.88 "Hg10 mi
9:53 PM68 °FClear.5 mph65%29.89 "Hg10 mi
8:53 PM72 °FClear.6 mph55%29.87 "Hg10 mi
7:53 PM77 °FSunny.9 mph42%29.84 "Hg10 mi
6:53 PM81 °FSunny.9 mph34%29.83 "Hg10 mi
5:53 PM85 °FSunny.10 mph30%29.81 "Hg10 mi
4:53 PM87 °FSunny.9 mph27%29.82 "Hg10 mi
3:53 PM88 °FSunny.13 mph29%29.83 "Hg10 mi
2:53 PM88 °FSunny.8 mph30%29.84 "Hg10 mi
1:53 PM87 °FSunny.10 mph31%29.85 "Hg10 mi
12:53 PM83 °FSunny.8 mph37%29.87 "Hg7 mi
11:53 AM78 °FSunny.6 mph46%29.88 "Hg5 mi
10:53 AM72 °FSunny.3 mph59%29.91 "Hg4 mi
Weather by CustomWeather, © 2015

See weather overviewHow to use our weather pages